Location: McFarlands Corners
(41.4117°N, 81.3382°W)
Time: 23:30:15
(UTC+00:00)

Vanguard 3 - Pass Details

Date: 16 November 2024
Orbit: 507 x 3220 km, 33.4° (Epoch: 06 December)

Event Time Altitude Azimuth Distance (km) Brightness Sun altitude
Rises 00:14:45 0° 273° (W) 5,090 12.6 -24.3°
Reaches altitude 10° 00:21:38 10° 244° (WSW) 3,311 11.1 -25.5°
Maximum altitude 00:23:48 11° 228° (SW) 2,966 10.6 -25.9°
Drops below altitude 10° 00:25:43 10° 212° (SSW) 2,834 10.3 -26.3°
Sets 00:30:08 0° 177° (S) 3,280 10.3 -27.1°
